Back to catalog

STARLINK-2381

AliveCommunicationsVLEO
NORAD 47800·PAYLOAD·🇺🇸 United States

Launched Mar 11, 2021 from Cape Canaveral Space Force Station

Loading…

Next Passes (next 24 hours)

TLE

FreshSource: CelesTrak SupGP

Epoch: Sep 14, 2026, 20:40 UTC

1 47800C 21018P   26257.86159722  .00021626  00000+0  69564-3 0  2579
2 47800  53.1590  78.6964 0001281  71.3145  55.6765 15.31681473    11

Track STARLINK-2381 in real time with AllMySat

Download on the App Store